Location: Go�ngahuizen
(53.0821°N, 5.8849°E)
Time: 23:32:52
(UTC+00:00)

Cosmos 2100 Rocket - Pass Details

Date: 09 April 2020
Orbit: 957 x 1000 km, 82.9° (Epoch: 27 May)

Event Time Altitude Azimuth Distance (km) Brightness Sun altitude
Rises 22:11:12 0° 351° (N) 3,669 8.2 -26.2°
Reaches altitude 10° 22:13:47 10° 356° (N) 2,723 7.2 -26.3°
Maximum altitude 22:19:54 55° 73° (ENE) 1,165 4.3 -26.7°
Enters shadow 22:20:39 52° 100° (E) 1,205 4.2 -26.7°
